Вернуться в каталог

FENGYUN 1C DEB

АктивенSSO
NORAD 29909·DEBRIS·🇨🇳 China

Запущен May 10, 1999 с Taiyuan Satellite Launch Center

Loading…

Ближайшие Пролёты (ближайшие 24 часа)

TLE

СвежийSource: Space-Track

Эпоха: Sep 14, 2026, 06:33 UTC

1 29909U 99025HF  26257.27295476  .00005446  00000-0  11381-2 0  9993
2 29909  98.6444  16.5074 0035781 246.7803 142.8891 14.59880766 24219

Отслеживайте FENGYUN 1C DEB в реальном времени с AllMySat

Download on the App Store